| time (UTC) | temp C | wind direction | speed KPH | gust KPH | rain 1hr cm | rain 24hr cm | rain mn cm | humidity % | barometer mb |
| 20260504000024 | 13 | 263 | 0.0 | 6.4 | 0.00 | 0.18 | 0.18 | 90 | 1013.6 |
| 20260503234524 | 13 | 181 | 1.6 | 19.3 | 0.00 | 0.18 | 0.18 | 90 | 1013.6 |
| 20260503233023 | 13 | 334 | 0.0 | 17.7 | 0.00 | 0.18 | 0.18 | 90 | 1013.8 |
| 20260503231525 | 13 | 319 | 0.0 | 8.0 | 0.00 | 0.18 | 0.18 | 90 | 1013.8 |
| 20260503230037 | 13 | 118 | 0.0 | 4.8 | 0.00 | 0.18 | 0.18 | 90 | 1014.0 |
| 20260503224520 | 13 | 250 | 0.0 | 4.8 | 0.00 | 0.18 | 0.18 | 90 | 1013.9 |
| 20260503223020 | 13 | 263 | 0.0 | 8.0 | 0.03 | 0.18 | 0.18 | 90 | 1013.9 |
| 20260503221521 | 13 | 321 | 0.0 | 9.7 | 0.03 | 0.18 | 0.18 | 90 | 1013.9 |
| 20260503220018 | 13 | 302 | 0.0 | 3.2 | 0.03 | 0.20 | 0.18 | 90 | 1013.7 |
| 20260503214534 | 13 | 132 | 0.0 | 11.3 | 0.03 | 0.20 | 0.18 | 90 | 1013.7 |
| 20260503213016 | 13 | 254 | 0.0 | 9.7 | 0.00 | 0.18 | 0.15 | 90 | 1013.9 |
| 20260503211516 | 13 | 252 | 0.0 | 8.0 | 0.00 | 0.18 | 0.15 | 90 | 1013.6 |
| 20260503210014 | 13 | 128 | 0.0 | 3.2 | 0.00 | 0.18 | 0.15 | 90 | 1013.5 |
| 20260503204513 | 13 | 238 | 0.0 | 4.8 | 0.00 | 0.18 | 0.15 | 90 | 1013.4 |
| 20260503203014 | 13 | 317 | 0.0 | 1.6 | 0.00 | 0.18 | 0.15 | 90 | 1013.4 |
| 20260503201512 | 12 | 261 | 0.0 | 0.0 | 0.03 | 0.18 | 0.15 | 90 | 1013.4 |
| 20260503200013 | 12 | 261 | 0.0 | 0.0 | 0.03 | 0.18 | 0.15 | 91 | 1013.4 |
| 20260503194510 | 12 | 261 | 0.0 | 0.0 | 0.03 | 0.18 | 0.15 | 91 | 1013.1 |
| 20260503193016 | 12 | 261 | 0.0 | 6.4 | 0.03 | 0.18 | 0.15 | 91 | 1013.2 |
| 20260503191522 | 12 | 338 | 0.0 | 6.4 | 0.00 | 0.15 | 0.13 | 90 | 1013.2 |
| 20260503190018 | 12 | 290 | 0.0 | 6.4 | 0.00 | 0.15 | 0.13 | 90 | 1013.3 |
| 20260503184505 | 13 | 280 | 0.0 | 4.8 | 0.00 | 0.15 | 0.13 | 90 | 1013.5 |
| 20260503183003 | 13 | 266 | 0.0 | 11.3 | 0.00 | 0.15 | 0.13 | 90 | 1013.7 |
| 20260503181503 | 13 | 281 | 0.0 | 8.0 | 0.03 | 0.15 | 0.13 | 90 | 1013.6 |
| 20260503180005 | 13 | 267 | 0.0 | 11.3 | 0.03 | 0.15 | 0.13 | 90 | 1013.7 |
| 20260503174602 | 13 | 261 | 1.6 | 8.0 | 0.03 | 0.15 | 0.13 | 90 | 1014.0 |
| 20260503173104 | 13 | 94 | 0.0 | 4.8 | 0.03 | 0.15 | 0.13 | 90 | 1014.2 |
| 20260503171556 | 13 | 355 | 1.6 | 6.4 | 0.00 | 0.13 | 0.10 | 90 | 1014.3 |
| 20260503170106 | 13 | 251 | 0.0 | 6.4 | 0.00 | 0.13 | 0.10 | 90 | 1014.6 |
| 20260503081522 | 15 | 256 | 0.0 | 0.0 | 0.00 | 0.03 | 0.03 | 82 | 1016.5 |
| 20260503071514 | 17 | 256 | 0.0 | 0.0 | 0.00 | 0.03 | 0.03 | 76 | 1016.0 |
| 20260503054506 | 19 | 259 | 0.0 | 0.0 | 0.00 | 0.03 | 0.03 | 68 | 1016.5 |
| 20260503053005 | 19 | 259 | 0.0 | 8.0 | 0.00 | 0.03 | 0.03 | 67 | 1016.5 |
| 20260503051504 | 19 | 310 | 0.0 | 4.8 | 0.00 | 0.03 | 0.03 | 67 | 1016.7 |
| 20260503050004 | 20 | 172 | 0.0 | 6.4 | 0.00 | 0.03 | 0.03 | 62 | 1016.8 |
| 20260503044505 | 21 | 252 | 0.0 | 6.4 | 0.00 | 0.03 | 0.03 | 61 | 1016.8 |
| 20260503043001 | 21 | 269 | 1.6 | 8.0 | 0.00 | 0.03 | 0.03 | 62 | 1016.9 |
| 20260503041503 | 19 | 292 | 0.0 | 4.8 | 0.00 | 0.03 | 0.03 | 66 | 1016.8 |
| 20260503040059 | 19 | 236 | 0.0 | 4.8 | 0.00 | 0.03 | 0.03 | 65 | 1016.9 |
| 20260503034558 | 20 | 360 | 1.6 | 9.7 | 0.00 | 0.03 | 0.03 | 61 | 1017.0 |
| 20260503033103 | 21 | 342 | 0.0 | 14.5 | 0.00 | 0.03 | 0.03 | 60 | 1017.1 |
| 20260503031553 | 20 | 355 | 1.6 | 9.7 | 0.00 | 0.03 | 0.03 | 64 | 1017.4 |
| 20260503030049 | 20 | 272 | 3.2 | 14.5 | 0.00 | 0.03 | 0.03 | 64 | 1017.8 |
| 20260503024546 | 18 | 348 | 1.6 | 9.7 | 0.00 | 0.03 | 0.03 | 67 | 1018.1 |
| 20260503023046 | 18 | 51 | 1.6 | 8.0 | 0.00 | 0.03 | 0.03 | 71 | 1018.4 |
| 20260503021541 | 17 | 259 | 0.0 | 0.0 | 0.00 | 0.03 | 0.03 | 73 | 1018.6 |
| 20260503020037 | 17 | 259 | 0.0 | 3.2 | 0.00 | 0.03 | 0.03 | 73 | 1018.9 |
| 20260503014533 | 17 | 259 | 0.0 | 6.4 | 0.00 | 0.03 | 0.03 | 74 | 1019.2 |
| 20260503013039 | 17 | 321 | 0.0 | 8.0 | 0.00 | 0.03 | 0.03 | 74 | 1019.5 |
| 20260503011529 | 17 | 320 | 0.0 | 1.6 | 0.00 | 0.03 | 0.03 | 76 | 1019.8 |
| 20260503010024 | 16 | 267 | 0.0 | 0.0 | 0.00 | 0.03 | 0.03 | 81 | 1019.9 |
| 20260503004521 | 15 | 267 | 0.0 | 0.0 | 0.00 | 0.03 | 0.03 | 85 | 1020.1 |
| 20260503003015 | 13 | 267 | 0.0 | 0.0 | 0.00 | 0.03 | 0.03 | 89 | 1020.4 |
| 20260503001514 | 13 | 267 | 0.0 | 0.0 | 0.00 | 0.03 | 0.03 | 91 | 1020.5 |